Location: College Park
(38.9810°N, 76.9370°W)
Time: 11:53:29

Tiangong 2 - Pass Details

Date: 15 March 2018
Orbit: 383 x 388 km, 42.8° (Epoch: 20 March)

Event Time Altitude Azimuth Distance (km) Brightness Sun altitude
Exits shadow 06:26:14 18° 273° (W) 1,030 2.6 -11.1°
Maximum altitude 06:28:23 54° 347° (NNW) 475 1.4 -10.7°
Drops below altitude 10° 06:31:31 10° 66° (ENE) 1,414 5.2 -10.1°
Sets 06:33:38 0° 71° (ENE) 2,270 6.8 -9.7°
